P/2012 S2 ( La Sagra ) 2021

Japanese version
Home page
Updated on April 18, 2021

---------------------------------------------------------------------

* Profile

* Orbital Elements

Epoch 2021 Nov. 2.0 TT = JDT 2459520.5
T 2021 Oct. 31.73545 TT                                 MPC
q   1.3626945            (2000.0)            P               Q
n   0.10623818     Peri.  312.47372     +0.99137910     -0.05766768
a   4.4151857      Node    51.17853     +0.10761460     +0.87060384
e   0.6913619      Incl.    8.68541     -0.07474346     +0.48859328
P   9.28
From 357 observations 2012 Sept. 23-Dec. 18, mean residual 0".4.

* Magnitudes Graph

        m1 = 16.2 + 5 log d + 10.0 log r(t - 100)

---------------------------------------------------------------------

The orbital elements are published on M.P.E.C. 2013-C52.
The magnitudes graphs are made with Comet for Windows.

---------------------------------------------------------------------

Copyright(C) Seiichi Yoshida (comet@aerith.net). All rights reserved.